Temperature
21 21 20 21 26 29 28 28 28 27 27 25 25 25 25 24 24 22 20 19 19 18 18 18 18 18 18 18 18 18 18 18 18 18 18 18 18 18 18 18 18 18 18 18 18 18 18 18 18
21 20 21 25 29 29 28 28 27 27 26 25 25 25 25 23 21 20 19 18 18 18 18 18 18 18 18 18 18 18 18 18 18 18 18 18 18 18 18 18 18 18 18 18 18 18 18 18 18
20 21 24 29 29 29 28 28 27 26 25 25 25 24 24 22 21 20 19 19 19 18 18 18 18 18 18 18 18 18 18 18 18 18 18 18 18 18 18 18 18 18 18 18 18 18 18 18 17
21 23 27 30 29 29 29 28 28 27 26 25 25 24 22 20 20 20 19 19 19 18 18 17 18 18 18 18 18 18 18 18 18 18 18 18 18 18 18 18 18 18 18 18 18 18 18 18 17
22 27 30 30 30 29 29 28 28 28 27 25 25 24 22 20 20 19 19 19 19 19 18 18 18 18 18 18 18 18 18 18 18 18 18 18 18 18 18 18 18 18 18 18 18 18 18 17 17
27 30 31 30 30 30 30 28 28 28 26 25 25 24 22 20 19 19 19 19 19 19 18 18 18 18 18 18 18 18 18 18 18 18 18 18 18 18 18 18 18 18 18 18 18 18 17 17 17
28 31 31 31 30 30 29 28 28 28 27 26 25 25 22 20 20 19 19 19 19 19 18 18 18 18 18 18 18 18 18 18 18 18 18 18 18 18 18 18 18 18 18 18 17 17 17 17 17
28 31 32 31 31 30 30 28 28 28 27 25 25 25 23 20 19 19 19 19 18 18 18 18 18 18 17 17 18 18 18 18 18 18 18 18 18 18 18 17 18 18 18 17 17 17 17 17 17
27 31 32 32 31 31 30 29 27 26 26 25 25 25 23 20 19 19 19 19 18 18 18 18 18 18 18 17 17 18 18 18 18 18 18 18 17 17 17 17 18 18 18 18 17 17 17 17 17
30 32 32 32 32 31 30 29 28 27 27 26 24 23 21 20 20 20 20 19 19 18 18 18 18 18 18 17 17 17 17 17 17 17 17 17 17 17 17 17 18 18 18 18 18 17 17 17 17
31 32 32 32 31 31 30 30 29 29 29 27 25 23 21 21 21 21 21 20 20 19 18 18 18 18 18 18 17 17 17 17 17 17 17 17 17 17 17 17 17 17 17 17 17 17 17 17 17
31 32 32 32 31 31 31 30 29 29 29 27 25 23 22 22 22 21 21 21 20 19 19 18 18 18 18 18 17 17 17 17 17 17 17 17 17 17 17 17 17 17 17 17 17 17 17 17 17
32 32 31 31 31 31 30 30 30 29 27 26 25 23 23 23 22 22 21 20 20 19 19 19 18 18 18 18 18 17 17 17 17 17 17 17 17 17 17 17 17 17 17 17 17 17 17 17 17
32 32 32 31 31 30 31 30 30 29 27 26 25 24 23 23 23 22 21 20 20 19 19 19 18 18 18 18 18 18 17 18 17 17 17 17 17 17 17 17 17 17 17 17 17 17 17 17 17
31 32 32 32 31 31 31 30 30 29 27 26 25 24 24 23 23 22 21 21 20 19 19 19 18 18 18 18 18 18 18 18 18 18 17 17 17 17 17 17 17 17 17 17 17 17 17 17 17
32 32 32 32 32 31 31 31 31 28 28 27 26 25 24 23 23 22 21 21 20 20 19 19 19 19 19 18 18 18 18 18 18 18 18 18 17 18 18 17 17 17 17 17 17 17 17 17 17
32 32 32 32 32 32 32 32 31 29 28 28 26 25 24 23 23 22 22 21 20 20 20 20 19 19 19 18 18 18 18 18 18 18 18 18 18 17 17 17 17 17 17 17 17 18 17 17 17
32 32 32 32 32 32 32 32 31 29 29 28 27 26 25 24 24 23 22 21 21 20 20 20 20 19 19 18 19 18 18 18 18 18 18 18 18 18 17 18 18 18 18 17 17 17 17 17 18
32 32 32 32 32 32 32 32 32 30 29 29 28 27 26 25 24 23 22 22 21 20 20 20 20 19 19 19 18 18 18 18 18 18 18 18 18 18 18 18 18 18 18 17 17 17 17 18 18
31 31 32 32 32 32 32 32 32 31 30 29 28 27 26 26 25 24 22 22 21 21 21 20 20 20 20 19 19 19 19 19 19 19 18 18 18 18 18 18 18 18 18 18 18 18 18 18 18
31 31 31 31 32 32 32 32 32 31 30 29 28 28 27 26 26 24 23 22 22 21 21 21 21 20 20 20 19 19 19 19 19 19 19 19 18 18 18 18 18 18 18 18 18 18 17 18 18
31 32 31 31 31 32 32 31 32 32 31 30 29 28 28 27 26 25 23 23 22 22 22 21 21 21 21 20 19 19 19 19 19 19 19 19 19 18 18 18 18 18 18 18 18 18 18 18 18
31 31 31 31 31 31 31 31 32 32 31 31 30 29 28 28 26 25 24 23 23 22 22 22 22 21 21 21 20 20 19 19 19 19 19 19 18 18 18 18 18 18 18 18 18 18 18 18 18
31 30 30 30 31 30 31 31 31 33 32 31 31 29 28 28 27 25 24 24 23 22 22 22 22 22 21 21 21 20 20 19 19 19 19 19 19 18 18 18 18 18 18 18 18 18 18 18 18
30 30 29 29 29 30 31 31 31 32 32 31 31 29 28 27 27 26 25 24 23 22 22 22 22 22 22 21 21 21 20 20 20 19 19 19 19 19 19 18 18 18 18 18 18 18 18 18 18
30 30 29 29 29 31 30 30 31 31 31 30 29 29 28 28 27 26 25 24 23 23 22 22 22 22 22 21 21 21 21 20 19 19 19 19 19 19 19 19 19 18 18 18 18 18 18 18 18
30 30 31 30 30 30 30 31 31 31 30 30 29 28 28 27 27 26 25 24 23 23 22 22 22 22 22 21 21 21 21 20 19 19 19 19 19 19 19 19 18 18 18 18 18 18 18 18 18
30 30 30 30 28 28 30 30 31 30 29 29 29 28 27 27 26 26 25 25 24 23 22 22 22 22 22 21 21 20 21 20 20 19 19 19 19 19 19 18 18 18 18 18 18 18 18 18 18
28 29 29 29 29 28 29 30 31 29 29 29 29 28 27 26 26 26 25 24 24 23 22 22 21 21 21 21 20 20 20 20 20 19 19 19 19 19 19 18 18 18 18 18 18 18 17 17 17
29 29 29 28 28 28 29 29 29 29 29 28 27 26 25 25 25 25 24 24 23 23 22 22 21 20 20 20 20 20 20 20 19 19 19 19 19 18 18 18 18 18 18 18 18 18 17 17 17
Wind_Speed
13 10 6 4 3 5 12 10 8 7 6 6 6 5 6 7 6 7 6 7 9 10 12 13 13 14 15 15 15 15 15 15 15 15 15 15 15 15 14 14 14 13 13 13 12 12 12 12 12
9 6 5 4 3 10 12 9 9 9 8 7 6 6 7 8 8 8 8 9 10 11 12 13 14 14 15 14 14 14 15 14 14 14 14 14 13 13 13 12 12 12 12 12 11 11 11 11 11
7 6 4 1 9 11 10 9 9 9 6 4 5 6 6 6 8 7 10 11 12 11 12 14 13 14 14 14 14 14 14 13 13 13 13 13 13 12 11 11 11 11 10 10 10 10 10 10 10
5 4 3 4 12 11 9 8 8 7 6 5 5 7 7 6 5 9 13 12 12 12 13 15 12 13 13 13 13 13 13 13 12 12 12 12 12 11 11 10 10 10 10 9 9 9 9 8 8
5 3 2 10 12 9 8 7 5 5 5 6 6 9 9 7 10 14 13 11 12 12 12 15 13 12 12 11 11 12 12 12 11 11 11 11 11 10 9 9 9 9 8 8 8 8 8 7 7
4 2 5 10 11 8 7 6 5 7 8 7 7 9 8 9 11 12 12 11 11 11 12 14 13 12 11 10 10 10 11 11 11 10 10 10 10 10 9 8 9 8 8 7 7 7 7 7 7
4 3 7 9 9 8 6 4 4 6 7 7 6 8 9 11 12 12 11 10 10 10 11 11 12 12 10 9 9 9 10 10 10 9 9 9 9 9 8 8 7 7 7 6 6 7 7 6 6
4 2 6 8 8 8 6 5 4 4 7 7 5 6 10 14 13 12 11 10 9 9 9 10 10 10 10 10 9 8 8 9 9 8 8 8 8 8 8 8 7 7 7 6 6 6 6 6 6
3 1 7 8 6 6 6 5 5 5 8 6 4 6 13 18 15 13 12 10 10 9 8 9 9 9 8 8 10 9 9 9 8 8 8 7 7 7 7 6 6 5 6 6 6 6 6 6 8
2 3 7 6 5 4 5 4 6 6 7 7 8 11 16 17 15 14 13 12 12 11 9 8 8 8 8 7 8 6 7 8 6 6 6 5 4 4 4 8 6 5 5 6 6 6 8 9 8
1 3 4 4 3 3 5 5 6 5 5 7 12 16 18 17 15 13 12 12 11 11 10 10 8 7 7 6 6 5 5 5 5 5 4 3 3 4 4 5 7 6 7 6 7 8 7 5 4
1 1 2 1 2 3 3 5 5 4 5 7 12 17 18 17 15 13 12 11 11 11 10 9 9 7 6 5 5 5 5 5 4 5 4 4 2 2 2 2 3 4 4 3 4 4 5 4 4
3 1 1 0 2 3 4 5 4 5 7 10 14 17 17 16 14 12 11 11 11 11 10 9 8 7 6 5 5 5 4 4 5 5 5 4 3 3 2 2 2 2 3 4 3 3 3 3 4
1 2 1 2 3 4 5 5 5 5 9 12 15 16 16 15 15 13 12 12 11 11 11 10 9 9 7 6 5 4 5 4 5 5 5 5 3 2 2 3 2 3 3 2 3 3 3 3 3
3 4 4 4 4 4 5 6 6 7 11 13 14 15 15 15 14 14 13 12 12 11 11 10 10 10 9 7 7 5 5 6 5 4 5 5 5 3 3 2 3 2 3 3 3 3 3 4 4
6 7 5 4 5 4 6 2 7 9 12 13 14 14 15 15 15 14 13 12 12 11 11 11 10 10 9 7 6 5 5 5 5 5 5 6 5 5 4 3 3 3 3 3 3 3 3 3 3
9 8 6 4 5 4 7 3 6 9 11 12 13 14 15 15 15 14 14 13 12 12 12 11 10 10 10 8 7 6 5 5 5 5 5 5 6 6 6 4 3 4 3 3 3 2 3 3 4
7 8 7 5 4 6 8 6 5 9 11 11 13 14 15 15 16 15 15 14 13 13 12 12 11 10 9 8 7 6 6 6 6 5 5 6 6 6 6 5 4 5 4 3 3 3 4 4 4
8 9 9 6 4 7 8 8 6 9 11 12 13 14 15 15 15 15 15 15 14 13 13 13 12 11 9 8 8 7 7 6 6 5 6 7 6 6 5 4 4 5 4 4 4 4 4 5 3
10 11 10 6 4 7 8 9 7 9 12 13 14 15 15 15 15 16 16 16 16 15 14 14 13 13 12 9 7 6 6 6 6 5 5 7 7 6 6 5 5 5 4 5 5 5 4 4 3
12 12 10 7 6 9 9 10 9 9 11 12 13 14 15 15 17 17 17 17 17 16 16 14 14 13 13 11 9 7 6 6 6 6 6 7 7 7 6 6 5 5 6 6 6 6 6 5 4
13 9 9 9 10 9 9 11 7 8 10 11 13 14 15 15 16 17 17 18 17 17 15 14 13 13 13 12 11 11 8 8 7 6 6 6 7 7 7 6 6 6 6 5 6 6 5 6 5
10 7 9 10 12 13 12 12 9 9 9 10 11 13 14 14 16 17 17 18 17 16 15 14 14 13 13 12 11 11 10 8 7 6 6 6 6 6 7 6 6 6 6 6 6 5 6 5 5
7 8 9 11 12 16 15 14 12 8 8 7 8 10 12 13 14 15 15 15 16 16 15 15 15 14 13 13 13 12 11 10 8 7 7 6 5 6 7 7 6 6 6 6 6 6 6 6 6
11 12 10 12 13 15 11 13 11 6 6 6 7 7 10 12 13 15 16 16 16 17 16 15 15 14 14 14 13 13 12 11 10 9 8 7 6 6 6 6 6 6 6 6 6 6 6 6 6
13 16 14 14 14 12 10 12 9 6 5 6 6 5 7 10 12 13 15 16 16 17 17 16 15 14 14 14 13 11 11 9 9 9 8 7 6 6 5 6 7 7 7 7 6 6 6 6 6
13 15 15 15 17 15 12 11 10 7 6 6 5 5 5 7 10 12 13 14 15 16 17 16 15 14 14 13 12 11 11 10 9 8 9 7 6 6 6 7 7 7 7 7 7 6 6 6 6
12 12 11 14 14 16 15 15 11 8 7 6 5 5 5 5 8 10 11 12 13 14 14 14 14 13 12 12 11 10 10 10 9 8 8 7 7 6 7 7 7 7 7 7 7 7 7 7 6
10 12 12 12 14 15 16 11 4 5 6 7 6 5 4 4 5 7 8 9 10 11 12 13 13 12 11 11 11 10 10 9 9 8 8 8 7 7 7 7 7 7 7 7 7 8 7 8 7
10 12 13 13 14 14 16 11 2 3 4 5 5 4 2 1 3 5 7 7 8 9 10 11 11 11 11 10 10 10 9 8 9 8 8 8 8 8 8 7 7 7 8 7 8 9 8 8 8
Wind_Direction
167 176 206 237 230 74 60 57 57 67 68 69 69 65 61 45 35 83 103 112 115 118 119 122 116 115 115 117 118 121 121 122 122 122 123 122 121 120 119 118 117 117 117 116 117 118 118 119 120
169 184 228 247 26 64 61 58 63 65 90 99 84 75 72 66 66 102 118 119 122 118 119 118 117 118 119 118 119 122 123 124 126 126 125 123 121 120 120 120 119 118 119 120 122 122 123 123 125
176 223 265 354 49 53 59 63 78 89 98 92 86 64 58 74 95 111 123 132 128 119 116 114 120 121 121 121 121 122 124 125 128 129 128 127 126 125 124 123 122 122 123 124 124 126 126 129 130
205 229 235 59 62 58 64 78 95 104 94 83 98 89 80 73 97 119 130 135 127 126 124 119 122 121 122 122 124 123 124 125 127 129 130 130 130 130 129 128 125 126 128 129 128 131 133 133 132
243 262 92 71 66 67 71 84 96 85 90 98 100 101 94 88 108 124 134 136 130 127 123 123 125 123 122 122 126 127 127 128 129 131 131 132 132 131 131 131 130 130 133 134 135 138 140 137 137
254 264 56 65 69 73 81 94 98 86 98 108 111 109 99 120 128 134 136 137 132 130 127 124 127 127 128 127 124 127 128 129 129 129 131 134 136 136 136 136 135 138 140 142 144 148 153 151 148
304 17 58 65 72 77 81 94 85 94 108 113 120 112 122 137 137 140 137 136 134 133 131 132 135 134 135 131 132 131 132 132 131 132 133 136 137 137 136 137 139 142 146 150 155 157 159 158 156
299 318 65 64 65 73 97 101 85 92 101 119 134 125 142 145 145 142 141 140 136 138 137 137 138 138 148 146 146 142 140 138 135 136 137 139 144 146 148 154 144 145 148 152 157 161 164 161 161
266 344 57 55 57 80 115 117 105 108 123 129 115 105 131 142 148 149 149 148 149 149 148 147 142 145 149 149 145 152 148 146 154 150 150 165 161 156 162 142 139 152 158 163 165 160 163 171 173
261 34 50 43 48 86 129 124 135 143 139 134 126 120 133 148 157 161 161 160 159 158 158 154 152 154 157 152 148 158 157 152 166 150 159 159 148 156 149 134 155 166 171 177 174 173 183 199 180
275 21 37 46 64 97 132 137 151 152 144 153 153 148 152 159 165 168 166 166 161 160 161 162 163 163 160 154 157 159 153 150 157 154 163 156 170 168 162 155 165 177 187 190 175 191 193 189 183
246 325 345 22 102 137 138 141 152 156 99 133 151 155 160 167 170 171 169 167 162 164 166 164 163 167 170 164 159 165 164 163 159 156 183 174 181 191 153 168 172 181 182 189 195 193 188 191 193
236 305 343 3 170 160 157 157 148 140 126 136 147 159 167 171 172 173 169 169 170 171 172 168 169 171 172 173 187 169 168 171 165 171 184 195 194 194 165 176 197 209 189 187 200 203 192 200 204
281 269 236 169 150 161 172 160 170 150 146 150 158 168 174 176 176 174 176 179 179 179 178 174 179 178 181 184 189 178 179 182 183 184 183 203 207 194 200 195 202 210 210 204 202 196 203 217 219
232 226 197 174 174 167 185 187 191 159 158 163 169 174 178 182 182 184 184 185 184 184 183 182 184 183 187 192 193 189 193 189 192 186 187 204 214 207 219 216 217 211 205 201 216 208 214 224 224
227 230 220 175 188 186 224 208 153 166 175 176 176 178 184 187 190 190 189 189 187 186 186 189 192 185 188 195 199 196 202 199 200 197 195 206 215 217 224 225 224 214 219 211 211 221 223 236 249
226 235 236 186 194 208 230 247 149 179 187 186 185 184 188 190 195 194 193 191 191 190 189 191 197 192 193 193 201 210 204 209 214 207 205 205 216 217 221 227 228 225 226 225 232 215 238 237 245
240 248 242 235 203 228 237 245 177 189 199 196 193 192 192 195 197 194 195 194 192 192 192 192 194 194 195 195 199 210 211 210 214 215 212 216 218 218 226 221 219 229 225 227 230 227 234 243 244
258 260 257 250 234 240 247 252 226 201 208 206 200 198 199 201 195 192 194 195 193 193 194 195 198 192 196 199 201 202 206 211 212 217 212 217 224 220 226 238 216 228 225 231 235 234 226 236 240
244 252 255 243 232 250 259 257 240 214 216 213 208 204 204 200 195 192 195 196 197 195 196 196 198 197 199 199 203 209 215 216 216 219 211 221 222 224 221 227 232 227 229 229 232 235 248 243 226
239 245 255 260 251 240 257 249 229 212 215 216 216 213 208 203 199 194 196 199 198 197 197 198 198 198 201 199 202 201 207 221 214 214 213 219 222 224 233 231 238 236 237 230 231 234 240 248 234
244 243 254 254 255 249 246 261 232 211 210 215 216 214 211 205 203 199 197 198 199 198 194 196 195 198 199 200 208 207 210 216 218 217 216 215 220 227 227 231 232 237 243 238 237 228 243 247 246
252 248 248 252 255 258 245 256 249 214 221 219 214 214 214 207 202 201 200 198 199 196 192 192 193 197 197 200 205 211 217 220 220 216 215 221 215 221 226 226 227 232 239 241 246 246 246 244 250
233 231 238 243 248 248 246 251 253 230 227 224 215 213 214 210 204 200 200 196 195 193 192 192 192 196 196 199 204 211 218 221 222 219 218 219 217 216 219 222 227 234 240 237 239 240 237 247 253
220 231 237 236 234 244 236 244 253 248 243 245 235 222 212 209 205 199 196 194 193 193 192 193 192 196 198 200 205 209 214 217 221 226 225 227 223 218 215 220 224 234 237 240 240 235 244 238 240
227 235 241 252 253 249 224 240 245 244 250 250 241 230 214 208 205 201 197 196 195 195 193 194 194 197 197 200 204 207 210 216 222 225 230 224 227 225 216 217 226 233 237 238 233 241 237 235 237
235 238 248 256 262 263 250 246 243 232 240 240 231 223 216 209 207 205 200 198 197 197 196 196 195 196 197 199 201 206 209 218 222 220 225 228 224 221 213 220 228 233 236 240 237 238 239 237 240
246 244 243 245 250 255 251 245 245 226 238 245 239 229 227 216 211 207 204 200 199 198 195 195 194 195 196 197 199 202 205 211 218 221 221 225 222 221 220 221 228 233 235 235 236 239 235 235 238
225 231 237 245 250 255 258 251 256 231 240 250 250 246 238 227 215 203 201 199 195 192 189 190 190 191 194 197 197 201 202 204 208 213 216 218 220 217 222 225 227 231 235 236 236 241 237 236 237
243 241 236 241 245 251 262 262 256 244 247 257 257 255 257 251 218 197 191 188 182 181 183 182 185 187 190 192 193 197 198 202 208 211 214 214 215 217 221 227 227 232 234 234 235 239 239 237 237
Height
1497 1497 1498 1499 1493 1487 1493 1493 1490 1493 1496 1500 1502 1502 1502 1505 1507 1517 1520 1519 1520 1521 1521 1521 1522 1524 1526 1527 1529 1531 1533 1534 1536 1537 1539 1540 1541 1543 1544 1546 1547 1548 1550 1551 1552 1553 1553 1554 1555
1499 1498 1500 1497 1486 1492 1498 1493 1494 1496 1501 1503 1504 1505 1505 1510 1514 1517 1519 1521 1522 1523 1524 1524 1525 1527 1528 1530 1532 1533 1535 1536 1538 1539 1541 1542 1544 1545 1546 1547 1549 1550 1551 1552 1553 1554 1555 1556 1556
1499 1500 1500 1488 1488 1494 1498 1494 1496 1500 1503 1504 1505 1507 1510 1514 1517 1519 1521 1522 1524 1525 1526 1526 1528 1529 1531 1532 1534 1536 1537 1538 1540 1541 1543 1544 1545 1547 1548 1549 1550 1551 1552 1553 1554 1555 1556 1557 1558
1501 1501 1497 1488 1492 1492 1493 1494 1498 1501 1504 1505 1506 1510 1514 1518 1520 1521 1522 1524 1526 1528 1529 1529 1530 1532 1533 1535 1536 1538 1539 1541 1542 1543 1544 1546 1547 1548 1549 1551 1552 1553 1554 1554 1555 1556 1557 1558 1559
1502 1497 1488 1488 1491 1492 1493 1497 1499 1499 1503 1506 1507 1511 1517 1521 1521 1523 1525 1527 1529 1530 1531 1532 1532 1534 1535 1537 1538 1540 1541 1542 1543 1545 1546 1547 1548 1550 1551 1552 1553 1554 1554 1555 1556 1557 1558 1559 1560
1500 1491 1489 1493 1494 1493 1495 1498 1499 1501 1505 1508 1509 1512 1519 1522 1523 1525 1527 1529 1531 1532 1533 1533 1534 1536 1537 1539 1540 1542 1543 1544 1545 1546 1547 1548 1550 1551 1552 1553 1554 1554 1555 1556 1557 1558 1559 1559 1560
1499 1489 1490 1490 1493 1493 1496 1499 1499 1501 1505 1509 1511 1513 1520 1523 1525 1527 1528 1530 1532 1534 1535 1536 1537 1538 1539 1540 1542 1543 1544 1545 1546 1547 1548 1549 1551 1552 1553 1553 1554 1555 1556 1557 1558 1558 1559 1560 1561
1499 1491 1487 1488 1492 1494 1497 1500 1502 1503 1506 1511 1512 1513 1518 1523 1525 1527 1530 1531 1533 1535 1537 1537 1539 1540 1542 1542 1543 1544 1545 1546 1547 1548 1549 1551 1552 1553 1553 1554 1555 1556 1557 1557 1558 1559 1560 1561 1561
1499 1490 1489 1489 1491 1493 1497 1499 1504 1506 1508 1511 1513 1514 1518 1522 1525 1528 1530 1532 1534 1535 1537 1539 1541 1541 1543 1544 1544 1545 1546 1547 1548 1549 1550 1552 1553 1554 1554 1555 1555 1556 1557 1558 1559 1559 1560 1561 1561
1496 1490 1490 1489 1490 1492 1496 1499 1503 1505 1507 1511 1514 1517 1519 1522 1526 1528 1530 1532 1534 1536 1538 1539 1541 1542 1544 1545 1546 1547 1548 1548 1550 1551 1552 1553 1553 1554 1555 1555 1556 1556 1557 1558 1559 1559 1560 1561 1563
1494 1491 1489 1490 1492 1494 1496 1499 1502 1502 1504 1508 1512 1517 1520 1523 1526 1528 1531 1533 1535 1536 1538 1540 1541 1543 1544 1545 1546 1547 1549 1549 1550 1551 1552 1553 1554 1555 1556 1556 1557 1557 1558 1559 1559 1560 1561 1562 1563
1494 1492 1492 1492 1493 1494 1496 1498 1501 1501 1504 1508 1512 1515 1519 1522 1525 1528 1530 1533 1535 1537 1538 1540 1541 1542 1544 1545 1547 1548 1549 1550 1551 1551 1552 1553 1554 1554 1556 1556 1557 1558 1558 1559 1560 1560 1561 1562 1562
1493 1492 1492 1493 1493 1494 1496 1497 1500 1502 1506 1509 1512 1516 1519 1522 1525 1528 1531 1533 1535 1537 1538 1540 1541 1542 1543 1544 1546 1548 1549 1551 1551 1551 1552 1553 1554 1554 1555 1556 1556 1557 1558 1558 1559 1559 1560 1561 1562
1492 1492 1492 1492 1493 1495 1496 1497 1500 1502 1506 1509 1512 1515 1518 1521 1524 1527 1530 1532 1534 1536 1538 1539 1540 1541 1543 1544 1546 1548 1549 1550 1551 1552 1552 1552 1554 1554 1555 1555 1556 1557 1557 1558 1558 1559 1560 1560 1561
1493 1491 1490 1491 1492 1494 1495 1496 1497 1501 1505 1508 1511 1514 1517 1520 1523 1526 1528 1531 1533 1535 1537 1538 1540 1541 1542 1544 1546 1548 1549 1550 1551 1551 1551 1552 1553 1553 1554 1555 1555 1556 1556 1556 1557 1558 1559 1559 1560
1489 1488 1490 1488 1490 1492 1495 1494 1493 1500 1503 1505 1509 1512 1516 1519 1522 1524 1527 1529 1532 1534 1535 1537 1540 1541 1542 1544 1545 1547 1549 1550 1550 1551 1551 1551 1552 1552 1553 1554 1555 1555 1556 1556 1557 1558 1558 1559 1559
1486 1489 1489 1488 1488 1489 1490 1490 1492 1497 1500 1503 1506 1510 1513 1517 1520 1522 1525 1527 1530 1532 1533 1535 1538 1540 1541 1543 1544 1546 1547 1548 1549 1550 1551 1551 1551 1552 1552 1553 1554 1554 1555 1555 1556 1557 1557 1557 1557
1489 1487 1487 1487 1485 1487 1488 1486 1489 1494 1497 1499 1503 1507 1510 1513 1516 1520 1523 1525 1527 1529 1532 1534 1536 1538 1540 1542 1543 1545 1546 1547 1548 1549 1549 1550 1550 1551 1551 1552 1552 1553 1554 1554 1554 1554 1555 1555 1555
1483 1486 1486 1483 1482 1485 1485 1485 1485 1490 1493 1496 1500 1503 1506 1510 1514 1517 1520 1523 1525 1527 1529 1532 1534 1536 1538 1540 1541 1543 1545 1546 1547 1548 1548 1548 1549 1550 1550 1551 1551 1551 1552 1552 1553 1553 1554 1554 1554
1484 1487 1485 1482 1482 1484 1483 1482 1480 1485 1488 1491 1495 1499 1502 1506 1510 1513 1516 1519 1522 1524 1527 1529 1531 1534 1535 1537 1539 1541 1543 1544 1545 1546 1546 1547 1547 1548 1549 1549 1549 1550 1550 1550 1551 1551 1552 1552 1552
1483 1484 1483 1485 1482 1481 1483 1483 1479 1480 1485 1489 1491 1494 1498 1501 1505 1509 1512 1515 1518 1521 1523 1526 1528 1531 1533 1535 1537 1539 1540 1541 1543 1543 1544 1544 1545 1546 1546 1547 1547 1548 1548 1549 1549 1549 1550 1550 1551
1484 1477 1481 1483 1486 1483 1483 1489 1477 1474 1479 1483 1486 1489 1492 1496 1500 1504 1507 1510 1513 1517 1520 1522 1525 1527 1530 1532 1534 1536 1537 1539 1540 1541 1542 1542 1542 1543 1544 1544 1545 1545 1546 1546 1547 1548 1548 1548 1549
1477 1477 1479 1481 1483 1484 1479 1486 1475 1470 1476 1477 1480 1483 1487 1491 1495 1498 1502 1505 1509 1513 1516 1518 1521 1523 1526 1529 1531 1533 1535 1536 1538 1538 1539 1539 1540 1541 1541 1542 1542 1543 1543 1544 1544 1545 1545 1546 1546
1477 1480 1481 1479 1479 1492 1480 1484 1479 1465 1469 1470 1474 1479 1483 1486 1490 1494 1498 1502 1505 1508 1512 1514 1516 1519 1522 1525 1527 1529 1531 1533 1534 1535 1536 1537 1538 1538 1539 1539 1540 1540 1541 1541 1541 1542 1542 1543 1543
1477 1483 1491 1493 1491 1486 1471 1478 1472 1463 1464 1467 1471 1475 1478 1482 1485 1489 1493 1496 1500 1503 1507 1510 1512 1515 1518 1521 1523 1525 1528 1529 1531 1532 1533 1534 1535 1536 1536 1537 1537 1537 1538 1538 1538 1539 1539 1540 1540
1473 1475 1489 1497 1489 1476 1473 1475 1465 1461 1464 1467 1470 1472 1475 1478 1481 1484 1488 1491 1494 1498 1502 1505 1508 1511 1514 1517 1519 1522 1524 1526 1527 1528 1530 1530 1531 1532 1533 1533 1534 1534 1535 1535 1535 1536 1536 1537 1537
1472 1470 1465 1474 1476 1479 1470 1464 1460 1460 1463 1465 1468 1470 1472 1474 1477 1480 1484 1487 1490 1493 1497 1500 1503 1506 1509 1512 1515 1517 1519 1521 1523 1524 1525 1526 1527 1528 1528 1529 1530 1531 1531 1532 1532 1533 1533 1533 1534
1466 1465 1469 1474 1488 1487 1474 1468 1462 1460 1462 1463 1465 1467 1469 1471 1474 1477 1480 1483 1486 1489 1493 1496 1499 1502 1505 1508 1511 1513 1515 1516 1518 1520 1521 1522 1523 1524 1524 1526 1527 1528 1528 1528 1529 1529 1530 1530 1530
1469 1469 1468 1468 1469 1481 1480 1466 1451 1456 1460 1461 1463 1465 1468 1469 1471 1473 1477 1480 1483 1486 1489 1492 1495 1498 1501 1504 1506 1508 1510 1512 1514 1515 1517 1518 1519 1520 1522 1523 1523 1524 1525 1525 1526 1526 1526 1527 1527
1463 1464 1466 1474 1475 1471 1471 1465 1451 1455 1458 1461 1463 1465 1467 1468 1470 1472 1475 1477 1480 1483 1485 1488 1491 1494 1497 1499 1501 1504 1506 1508 1511 1512 1513 1514 1515 1516 1518 1520 1520 1521 1522 1522 1522 1522 1523 1523 1523